Weather in Pavlovka

Russia / Lipetsk Oblast     53°09′17″N   39°04′41″E
temp.,
°C
wind,
m/s
gust,
m/s
humid.,
%
clouds,
%
prec.,
mm/h
press.,
hPa
HPBL,
m
20 april, tue
tue2000:00+6e61186100 0.0 1019554
03:00+6e61182100 0.0 1018463
06:00+6e61287100 0.0 1018585
09:00+5e71192100 0.0 1017617
12:00+4e61095100 0.5 1016641
15:00+5e61091100 0.9 1014690
18:00+4e71291100 0.0 1012633
21:00+3ene71394100 0.8 1009572
21 april, wed
wed2100:00+2ne61198100 5.3 1005523
03:00+3n3599100 9.9 1002191
06:00+2nw2399100 6.4 1002129
09:00+2w4699100 8.9 1005249
12:00+3w5892100 0.0 1008619
15:00+6wsw6881100 0.1 1010799
18:00+6wsw3685100 0.0 1012324
21:00+5s2289100 0.0 101430
22 april, thu
thu2200:00+5ssw379487 0.1 1014204
03:00+5ssw4894100 0.5 1015380
06:00+5wsw379352 0.1 1017404
09:00+8wsw567051 0.1 1018891
12:00+10sw576438 0.0 10191205
15:00+13sw575460 0.1 10181764
18:00+12s596649 0.1 1018447
21:00+9s498365 0.3 1019207
23 april, fri
fri2300:00+7s4109275 0.0 1019227
03:00+7s3109398 0.4 1019215
06:00+7s4108871 0.0 1019231
09:00+13ssw596455 0.0 1020433
12:00+16ssw784395 0.0 10192505
15:00+15s6951100 0.0 10181794
18:00+15s59555 0.0 1016659
21:00+10sse411745 0.1 1016273
24 april, sat
sat2400:00+9sse412865 0.3 1015271
03:00+8sse5138816 0.4 1013283
06:00+7s379373 0.4 1012166
09:00+10sse4781100 0.6 1010472
12:00+6wnw7891100 2.2 1010375
15:00+3wnw61195100 5.1 1011606
18:00+7w5106653 0.4 10101272
21:00+4w512760 0.4 1012423